Regional Weather Roundup
Issued by NWS Upton, NY

Current Version | Previous Version | Text Only | Print | Product List | Glossary On
Versions: 1 2 3 4 5 6 7 8 9 10 11 12 13 14 15 16 17 18 19 20 21 22 23 24 25 26 27 28 29 30 31 32 33 34 35 36 37 38 39 40 41 42 43 44 45 46 47 48 49 50
000
ASUS41 KOKX 271305
RWROKX

REGIONAL WEATHER ROUNDUP
NATIONAL WEATHER SERVICE NEW YORK NY
800 AM EST FRI FEB 27 2015

NOTE: "FAIR" INDICATES FEW OR NO CLOUDS BELOW 12,000 FEET WITH NO
SIGNIFICANT WEATHER AND/OR OBSTRUCTIONS TO VISIBILITY.

NYZ071-072-176-178-NJZ106-104-271400-
NEW YORK CITY METRO AREA


CITY           SKY/WX    TMP DP  RH WIND       PRES   REMARKS
CENTRAL PARK   MOSUNNY   18   3  52 VRB3      30.37R
LAGUARDIA APRT MOSUNNY   19   6  57 N10       30.36R WCI   7
KENNEDY INTL   MOSUNNY   20   5  52 N13       30.36R WCI   7
NEWARK/LIBERTY MOSUNNY   19   7  59 N12       30.37R WCI   7
BRNX BOT. GARD   N/A    N/A N/A N/A NW3       30.38R
TETERBORO      PTSUNNY   17   4  56 N8        30.36R WCI   7
$$

NYZ177-179-078>081-271400-
LONG ISLAND NEW YORK

CITY           SKY/WX    TMP DP  RH WIND       PRES   REMARKS
FARMINGDALE    MOSUNNY   19   6  57 N9        30.35R WCI   8
ISLIP          MOSUNNY   20   8  60 N9        30.33R WCI   9
SHIRLEY        MOSUNNY   19  10  68 N8        30.35R WCI   9
WESTHAMPTON    MOSUNNY   18  10  71 N7        30.34R WCI   9
MONTAUK POINT    N/A     23   7  50 N9        30.33R WCI  13
$$

NYZ052-065-067-271400-
HUDSON VALLEY

CITY           SKY/WX    TMP DP  RH WIND       PRES   REMARKS
WHITE PLAINS   SUNNY     14   2  58 NW10      30.31R WCI   1
NEWBURGH       NOT AVBL
MONTGOMERY     SUNNY      3  -4  72 CALM      30.35R
POUGHKEEPSIE   SUNNY      4   0  83 CALM      30.38R
ALBANY         MOSUNNY    7  -4  60 NW8       30.39R WCI  -6
$$

NJZ001-105-106-008-010-013-015-019>022-104-271400-
NEW JERSEY

CITY           SKY/WX    TMP DP  RH WIND       PRES   REMARKS
NEWARK/LIBERTY MOSUNNY   19   7  59 N12       30.37R WCI   7
TETERBORO      PTSUNNY   17   4  56 N8        30.36R WCI   7
CALDWELL       MOSUNNY   16   3  56 N3        30.36R
MORRISTOWN     CLOUDY    16   7  67 N5        30.36R WCI   9
SOMERVILLE     CLOUDY    18   4  54 N6        30.36R WCI  10
SUSSEX         PTSUNNY   12   2  64 VRB3      30.34R
ANDOVER          N/A     12   2  64 CALM      30.34R
TRENTON        CLOUDY    19   7  59 N7        30.35R WCI  10
MILLVILLE      MOSUNNY   23  15  71 N7        30.34R WCI  15
ATLANTIC CITY  PTSUNNY   21  13  71 N8        30.34R WCI  11
WRIGHTSTOWN    FLURRIES  20  10  63 NW12      30.33R WCI   9
TOMS RIVER     PTSUNNY   19  10  68 N8        30.34R WCI   9
BELMAR         CLOUDY    21   9  58 N9        30.33R WCI  11
$$

PAZ047>061-062-071-271400-
EASTERN PENNSYLVANIA

CITY           SKY/WX    TMP DP  RH WIND       PRES   REMARKS
PHILADELPHIA   LGT SNOW  22  16  78 N8        30.37R WCI  12
ALLENTOWN      CLOUDY    15   2  56 N7        30.36R WCI   5
SCRANTON       SUNNY      9  -2  61 NE5       30.33R WCI   1
$$

CTZ002-004>006-009-010-012-RIZ004-006-007-MAZ004-011-015-271400-
SOUTHERN NEW ENGLAND
 IN CT

CITY           SKY/WX    TMP DP  RH WIND       PRES   REMARKS
BRADLEY INTL   MOSUNNY   15   1  53 NW8       30.34R WCI   4
HARTFORD       SUNNY     15   3  59 N7        30.36R WCI   5
DANBURY        SUNNY      7  -1  70 CALM      30.33R
WTRBRY/OXFORD  MOSUNNY   10  -4  52 N9        30.29R WCI  -2
BRIDGEPORT     MOSUNNY   17   5  59 N7        30.35R WCI   8
MERIDEN        SUNNY     15   2  56 NW6       30.35R WCI   6
NEW HAVEN      SUNNY     16   4  59 N8        30.34R WCI   5
CHESTER        FAIR      14   5  67 N8        30.30R WCI   3
GROTON         SUNNY     15   3  59 N8        30.33R WCI   4
WILLIMANTIC    SUNNY      6   1  80 CALM      30.33R

 IN RI

CITY           SKY/WX    TMP DP  RH WIND       PRES   REMARKS
PROVIDENCE     PTSUNNY   16   3  56 NW5       30.33R WCI   9
BLOCK ISLAND   PTSUNNY   21   5  49 N10       30.29R WCI  10
WESTERLY       SUNNY     15   4  61 N7        30.33R WCI   5

 IN MA

CITY           SKY/WX    TMP DP  RH WIND       PRES   REMARKS
BOSTON         MOSUNNY   16  -3  43 NW14      30.33R WCI   2
WORCESTER      SUNNY     11  -4  51 NW8       30.24R WCI  -1
WESTFIELD      SUNNY     13   0  56 NW10      30.33R WCI   0
PROVINCETOWN   SUNNY     21   7  53 NW12      30.30R WCI   9
NANTUCKET      SUNNY     23   9  55 NW12      30.28R WCI  12
$$

ANZ330-335-338-340-345-350-353-355-271400-
COASTAL MARINE OBSERVATIONS


STATION/POSITION TIME  SKY/WX   TEMP    WIND        PRES    VSBY  WAVE
                                AIR SEA DIR/SP/G                  HT/PER
                 (UTC)          (F)     (DEG/KT/KT) (MB)    (MI)  (FT/S)
NY HARB ENTRANCE 1300            23 38  350/ 14/ 16 1027.4          4/11
4S FIRE IS       NOT AVBL
20S FIRE ISLAND  1200               36              1026.3          6/11
23SW MTP         1300                                 N/A           5/11
HUDSON CANYON    NOT AVBL
EXECUTION ROCKS  NOT AVBL
WESTERN LI SOUND NOT AVBL
CENTRAL LI SOUND NOT AVBL
EASTERN LI SOUND NOT AVBL
ROBBINS REEF     1300            18     350/  9/ 11 1026.8
$$


>>>>>>>>>>>>>>>>>>>>>>>>>>>> KEY <<<<<<<<<<<<<<<<<<<<<<<<<<<
>                                                          <
>     SKY/WX - SKY CONDITION/PRESENT WEATHER               <
>     TMP    - TEMPERATURE IN FAHRENHEIT                   <
>     DP     - DEWPOINT IN FAHRENHEIT                      <
>     RH     - RELATIVE HUMIDITY IN PERCENT                <
>     WIND   - DIRECTION AND SPEED IN MPH                  <
>     PRES   - MEAN SEA LEVEL PRESSURE IN INCHES OF HG     <
>     WCI    - WIND CHILL INDEX                            <
>     VSB    - VISIBILITY IN MILES                         <
>     HX     - HEAT INDEX                                  <
>     TC     - TEMPERATURE IN CELSIUS                      <
>     VRB    - VARIABLE WIND DIRECTION                     <
>                                                          <
>>>>>>>>>>>>>>>>>>>>>>>>>>>> KEY <<<<<<<<<<<<<<<<<<<<<<<<<<<




USA.gov is the U.S. government's official web portal to all federal, state and local government web resources and services.